Location: Berkeley
(37.8716°N, 122.2727°W)
Time: 01:14:33
(UTC-07:00)

Tiangong 2 - Pass Details

Date: 18 February 2019
Orbit: 379 x 390 km, 42.8° (Epoch: 22 March)

Event Time Altitude Azimuth Distance (km) Brightness Sun altitude
Rises 19:50:35 0° 288° (WNW) 2,250 6.2 -24.2°
Reaches altitude 10° 19:52:44 10° 281° (W) 1,394 4.9 -24.6°
Enters shadow 19:54:28 26° 260° (W) 785 3.2 -25.0°
